Pope AFB, NC

8:44 AM EST on December 03, 2016 (GMT -0500)
Pope Field Airport

Weather History for KPOB - August, 2013

Change the Weather History Date:

Sunday, August 18, 2013

  Actual Average Record
Temperature  
Mean Temperature 78 °F -  
Max Temperature 86 °F 89 °F 106 °F (1988)
Min Temperature 71 °F 70 °F 57 °F (1979)
Cooling Degree Days 14    
Growing Degree Days 28 (Base 50)    
Moisture  
Dew Point 71 °F    
Average Humidity 86    
Maximum Humidity 100    
Minimum Humidity 60    
Precipitation  
Precipitation 0.01 in - - ()
Sea Level Pressure  
Sea Level Pressure 30.17 in    
Wind  
Wind Speed 4 mph (West)    
Max Wind Speed 10 mph    
Max Gust Speed -    
Visibility 10 miles    
Events      
Averages and records for this station are not official NWS values.
T = Trace of Precipitation, MM = Missing Value Source: NWS Daily Summary

Daily Weather History Graph

Daily Weather History Graph

Search for Another Location

Airport or City:

Trip Planner

Search our weather history database for the weather conditions in past years. The results will help you decide how hot, cold, wet, or windy it might be!

Date:

Astronomy

Aug. 18, 2013 Rise Set
Actual Time 6:38 AM EDT 8:00 PM EDT
Civil Twilight 6:11 AM EDT 8:27 PM EDT
Nautical Twilight 5:39 AM EDT 8:59 PM EDT
Astronomical Twilight 5:06 AM EDT 9:32 PM EDT
Moon 6:03 PM EDT (8/18) 3:48 AM EDT (8/18)
Length of Visible Light 14h 15m
Length of Day
13h 22m
Waxing Gibbous, 92% of the Moon is Illuminated
Aug 18
Waxing Gibbous
Aug 20
Full
Aug 28
Last Quarter
Sep 5
New
Sep 12
First Quarter

Hourly Weather History & Observations

Time (EDT) Temp. Heat Index Dew Point Humidity Pressure Visibility Wind Dir Wind Speed Gust Speed Precip Events Conditions
12:23 AM 73.4 °F - 71.6 °F 94% 30.14 in 10.0 mi Calm Calm - N/A   Overcast
12:28 AM 73.4 °F - 71.6 °F 94% 30.14 in 10.0 mi Calm Calm - N/A   Overcast
12:58 AM 72.5 °F - 71.2 °F 96% 30.14 in 10.0 mi SE 3.5 mph - N/A   Overcast
1:03 AM 73.4 °F - 71.6 °F 94% 30.13 in 10.0 mi SE 2.3 mph - N/A   Overcast
1:28 AM 73.4 °F - 71.6 °F 94% 30.14 in 10.0 mi Variable 2.3 mph - N/A   Overcast
1:48 AM 73.4 °F - 71.6 °F 94% 30.14 in 9.0 mi Variable 2.3 mph - N/A   Overcast
1:58 AM 72.9 °F - 71.4 °F 95% 30.14 in 10.0 mi Calm Calm - N/A   Overcast
2:58 AM 72.9 °F - 71.6 °F 96% 30.14 in 10.0 mi South 3.5 mph - N/A   Overcast
3:28 AM 73.4 °F - 71.6 °F 94% 30.13 in 8.0 mi SW 4.6 mph - N/A   Overcast
3:38 AM 73.4 °F - 71.6 °F 94% 30.13 in 10.0 mi SW 8.1 mph - N/A   Overcast
3:58 AM 72.7 °F - 71.6 °F 96% 30.15 in 10.0 mi WSW 6.9 mph - N/A   Overcast
4:03 AM 73.4 °F - 71.6 °F 94% 30.14 in 10.0 mi WSW 6.9 mph - N/A   Overcast
4:38 AM 71.6 °F - 71.6 °F 100% 30.13 in 10.0 mi WSW 5.8 mph - N/A   Overcast
4:58 AM 71.8 °F - 70.3 °F 95% 30.14 in 10.0 mi WSW 6.9 mph - N/A   Overcast
5:13 AM 71.6 °F - 69.8 °F 94% 30.14 in 10.0 mi WSW 5.8 mph - N/A   Overcast
5:18 AM 71.6 °F - 69.8 °F 94% 30.14 in 10.0 mi WSW 5.8 mph - N/A   Overcast
5:33 AM 71.6 °F - 69.8 °F 94% 30.14 in 10.0 mi WSW 4.6 mph - N/A   Overcast
5:58 AM 71.4 °F - 70.0 °F 95% 30.16 in 10.0 mi West 4.6 mph - N/A   Overcast
6:03 AM 71.6 °F - 69.8 °F 94% 30.15 in 10.0 mi West 4.6 mph - N/A   Overcast
6:13 AM 71.6 °F - 69.8 °F 94% 30.15 in 10.0 mi WSW 3.5 mph - N/A   Overcast
6:23 AM 71.6 °F - 69.8 °F 94% 30.15 in 10.0 mi West 4.6 mph - N/A   Overcast
6:33 AM 71.6 °F - 69.8 °F 94% 30.16 in 10.0 mi West 4.6 mph - N/A   Overcast
6:58 AM 71.1 °F - 69.3 °F 94% 30.18 in 10.0 mi WSW 4.6 mph - N/A   Overcast
7:08 AM 71.6 °F - 69.8 °F 94% 30.17 in 10.0 mi WSW 3.5 mph - N/A   Mostly Cloudy
7:18 AM 71.6 °F - 69.8 °F 94% 30.17 in 10.0 mi West 4.6 mph - N/A   Mostly Cloudy
7:23 AM 71.6 °F - 69.8 °F 94% 30.17 in 10.0 mi West 4.6 mph - N/A   Scattered Clouds
7:48 AM 71.6 °F - 69.8 °F 94% 30.18 in 10.0 mi West 5.8 mph - N/A   Mostly Cloudy
7:58 AM 71.4 °F - 69.1 °F 92% 30.19 in 10.0 mi West 4.6 mph - N/A   Overcast
8:33 AM 71.6 °F - 69.8 °F 94% 30.19 in 10.0 mi West 4.6 mph - N/A   Overcast
8:58 AM 72.7 °F - 69.1 °F 88% 30.20 in 10.0 mi West 4.6 mph - N/A   Overcast
9:13 AM 73.4 °F - 69.8 °F 88% 30.19 in 10.0 mi West 4.6 mph - N/A   Scattered Clouds
9:53 AM 75.2 °F - 69.8 °F 83% 30.20 in 10.0 mi West 3.5 mph - N/A   Mostly Cloudy
9:58 AM 75.2 °F - 69.1 °F 81% 30.21 in 10.0 mi WNW 2.3 mph - N/A   Scattered Clouds
10:58 AM 77.4 °F - 70.2 °F 78% 30.22 in 10.0 mi WSW 4.6 mph - N/A   Mostly Cloudy
11:08 AM 77.0 °F - 69.8 °F 78% 30.21 in 10.0 mi West 4.6 mph - N/A   Mostly Cloudy
11:28 AM 78.8 °F - 69.8 °F 74% 30.21 in 10.0 mi NW 6.9 mph - N/A   Overcast
11:33 AM 78.8 °F - 71.6 °F 78% 30.21 in 10.0 mi NW 5.8 mph - N/A   Overcast
11:58 AM 79.5 °F - 70.3 °F 73% 30.22 in 10.0 mi West 9.2 mph - N/A   Mostly Cloudy
12:58 PM 81.1 °F 84.9 °F 70.7 °F 70% 30.19 in 10.0 mi West 10.4 mph - 0.01 in   Mostly Cloudy
1:03 PM 82.4 °F 87.2 °F 71.6 °F 70% 30.19 in 10.0 mi West 5.8 mph - N/A   Mostly Cloudy
1:28 PM 82.4 °F 87.2 °F 71.6 °F 70% 30.19 in 10.0 mi West 9.2 mph - N/A   Mostly Cloudy
1:58 PM 84.0 °F 88.7 °F 70.9 °F 64% 30.19 in 10.0 mi WNW 8.1 mph - N/A   Scattered Clouds
2:58 PM 84.7 °F 89.7 °F 70.9 °F 63% 30.17 in 10.0 mi Variable 4.6 mph - N/A   Mostly Cloudy
3:58 PM 85.1 °F 89.8 °F 70.3 °F 61% 30.16 in 10.0 mi Variable 3.5 mph - N/A   Mostly Cloudy
4:58 PM 86.0 °F 91.1 °F 70.7 °F 60% 30.14 in 10.0 mi Variable 2.3 mph - N/A   Scattered Clouds
5:58 PM 85.1 °F 91.1 °F 72.1 °F 65% 30.14 in 10.0 mi East 1.2 mph - N/A   Mostly Cloudy
6:58 PM 82.4 °F 87.7 °F 72.5 °F 72% 30.14 in 10.0 mi NE 4.6 mph - N/A   Mostly Cloudy
7:58 PM 79.3 °F - 73.4 °F 82% 30.16 in 10.0 mi NNE 4.6 mph - N/A   Mostly Cloudy
8:58 PM 76.6 °F - 71.4 °F 84% 30.17 in 10.0 mi ENE 4.6 mph - N/A   Clear
9:58 PM 75.9 °F - 71.2 °F 85% 30.20 in 10.0 mi ENE 3.5 mph - N/A   Mostly Cloudy
10:58 PM 73.9 °F - 70.3 °F 88% 30.20 in 10.0 mi NE 4.6 mph - N/A   Mostly Cloudy
11:58 PM 73.0 °F - 69.6 °F 89% 30.19 in 10.0 mi ENE 6.9 mph - N/A   Mostly Cloudy